This demonstration page uses our WeatherBlox Daily Observations layout. Learn more.

Left ArrowRight Arrow

44.89941, -97.11507

Hourly Observations for October 23, 2021

Temp ( °F °C ) Dew Point ( °F °C ) Humidity (%) Winds ( mph kmh ) Pressure ( in mb ) Visibility ( mi km ) Precip ( " mm )
12:53 am 00:53 Cloudy 37 2.8 29 -1.7 73 73 ENE 6 9 30.07 1018 10 16 N/A
1:53 am 01:53 Cloudy 33 0.6 28 -2.2 82 82 NE 5 7 30.07 1018 10 16 N/A
2:53 am 02:53 Cloudy 33 0.6 29 -1.7 85 85 NNE 5 7 30.07 1018 10 16 N/A
3:53 am 03:53 Cloudy 35 1.7 28 -2.2 76 76 NE 3 6 30.06 1018 10 16 N/A
4:53 am 04:53 Clear 34 1.1 27 -2.8 76 76 E 5 7 30.05 1018 10 16 N/A
5:53 am 05:53 Clear 32 undefined 27 -2.8 82 82 E 3 6 30.07 1018 10 16 N/A
6:53 am 06:53 Clear 32 undefined 27 -2.8 82 82 E 6 9 30.07 1018 10 16 N/A
7:53 am 07:53 Clear 32 undefined 27 -2.8 82 82 ESE 3 6 30.08 1019 10 16 N/A
8:53 am 08:53 Sunny 34 1.1 28 -2.2 79 79 E 7 11 30.08 1019 10 16 N/A
9:53 am 09:53 Sunny 38 3.3 30 -1.1 73 73 VRB 7 11 30.07 1018 10 16 N/A
10:53 am 10:53 Sunny 42 5.6 31 -0.6 65 65 ESE 12 19 30.06 1018 10 16 N/A
11:53 am 11:53 Sunny 44 6.7 32 undefined 63 63 ESE 12 19 30.04 1017 10 16 N/A
12:53 pm 12:53 Sunny 45 7.2 32 undefined 61 61 E 13 20 30.02 1017 10 16 N/A
1:53 pm 13:53 Sunny 44 6.7 32 undefined 63 63 E 12 19 30.02 1017 10 16 N/A
2:53 pm 14:53 Sunny 47 8.3 32 undefined 56 56 E 8 13 29.99 1016 10 16 N/A
3:53 pm 15:53 Sunny 46 7.8 32 undefined 58 58 E 9 15 29.97 1015 10 16 N/A
4:53 pm 16:53 Sunny 46 7.8 33 0.6 61 61 E 8 13 29.96 1014 10 16 N/A
5:53 pm 17:53 Sunny 44 6.7 33 0.6 65 65 ESE 7 11 29.96 1015 10 16 N/A
6:53 pm 18:53 Clear 43 6.1 34 1.1 71 71 E 8 13 29.96 1015 10 16 N/A
7:53 pm 19:53 Clear 42 5.6 34 1.1 73 73 E 8 13 29.96 1015 10 16 N/A
8:53 pm 20:53 Mostly Clear 42 5.6 34 1.1 73 73 E 8 13 29.95 1014 10 16 N/A
9:53 pm 21:53 Mostly Cloudy 43 6.1 34 1.1 71 71 ESE 10 17 29.94 1014 10 16 N/A
10:53 pm 22:53 Cloudy 43 6.1 34 1.1 71 71 ESE 12 19 29.94 1014 10 16 N/A
11:53 pm 23:53 Cloudy 43 6.1 34 1.1 71 71 ESE 10 17 29.93 1014 10 16 N/A

Powered by AerisWeather